SCP
0 0 0 1 1 0 0 0 0 1 1 1 1 2 2 3 5 6 6 6 5 4 5 10 17 20 20 16 11 6 4 3 3 3 4 4 4 4 4 4 4 4 4 4
0 0 0 0 0 0 0 0 0 1 1 2 2 3 3 5 6 6 6 5 5 5 6 10 16 18 16 13 9 5 3 2 2 2 3 3 3 4 4 4 3 3 3 3
0 0 0 0 0 0 1 1 1 1 1 3 4 4 4 5 6 5 4 4 5 6 6 7 9 10 9 7 5 3 2 2 2 2 2 3 3 3 3 3 3 3 2 2
0 0 0 0 0 0 1 1 1 1 2 3 4 4 4 4 4 3 3 4 5 5 4 4 4 4 4 3 3 2 2 2 2 3 3 3 3 3 3 3 3 2 2 1
0 0 0 0 0 0 1 1 2 2 2 2 3 4 4 3 3 4 4 5 5 5 5 4 3 2 3 3 3 3 3 3 3 3 3 3 3 4 4 3 3 2 2 1
0 0 0 0 1 1 1 1 2 2 2 2 2 3 3 3 4 5 6 7 6 6 6 5 4 3 4 4 3 3 3 4 4 4 5 5 5 4 4 3 2 1 1 1
0 0 0 1 1 1 1 1 1 2 2 2 2 2 3 4 5 7 7 7 6 5 5 5 4 4 5 5 5 5 6 6 6 6 7 6 5 3 3 2 1 1 1 1
0 0 0 1 1 1 1 2 3 3 3 2 3 3 4 5 6 7 6 5 5 5 5 5 4 5 6 7 8 8 8 8 7 6 6 5 3 2 2 1 1 1 1 1
0 1 1 1 1 2 2 3 5 6 6 5 4 4 5 6 7 7 5 5 5 6 6 5 4 5 7 8 9 9 9 7 5 4 4 3 2 2 1 1 1 1 1 1
1 1 1 1 1 2 3 4 6 8 8 7 6 5 5 6 8 8 7 6 7 8 7 5 4 5 6 7 7 7 6 4 3 3 3 2 2 1 1 1 1 1 1 1
1 1 1 1 1 2 2 3 5 6 8 8 7 6 5 7 9 9 7 7 7 7 5 4 3 4 4 4 4 3 3 2 2 2 2 2 1 1 0 0 0 0 0 0
1 1 1 1 1 2 3 3 4 4 5 6 7 6 5 6 8 8 6 6 6 4 3 2 2 2 2 2 1 1 1 2 2 2 2 1 1 0 0 0 0 0 0 0
1 1 1 2 2 2 3 3 3 3 3 3 5 5 5 5 6 6 5 4 3 2 2 2 2 2 1 1 1 1 1 1 2 1 1 1 0 0 0 0 0 0 0 0
1 2 2 2 2 2 2 2 3 3 2 2 3 4 5 5 5 4 4 3 3 3 3 3 3 2 2 2 1 1 1 1 1 1 1 1 0 0 0 0 0 0 0 0
1 1 2 2 3 3 2 3 3 3 2 2 3 4 5 5 5 4 4 4 3 4 5 5 4 3 3 3 2 2 1 1 1 1 1 1 1 0 0 0 0 0 0 0
1 1 2 2 3 3 3 4 4 3 3 3 4 5 5 6 5 5 5 4 4 4 5 6 5 4 4 4 3 3 2 2 1 1 1 1 1 1 0 0 0 0 0 0
1 2 2 3 4 4 4 4 4 4 4 4 4 5 6 7 7 6 6 5 5 4 5 6 5 5 5 4 4 4 4 3 2 2 1 1 1 1 0 0 0 0 0 0
2 3 3 3 3 4 4 4 4 4 4 4 4 5 6 8 8 7 6 6 5 5 5 5 5 5 5 4 4 5 5 4 3 2 2 1 1 1 0 1 1 0 0 0
3 3 4 4 4 4 4 4 4 4 4 4 4 4 5 7 8 8 7 6 5 5 5 4 4 5 5 4 4 4 4 4 3 3 2 1 1 1 1 1 1 0 0 0
3 3 3 4 5 6 5 5 4 3 3 4 4 4 4 6 8 9 8 7 6 6 5 4 3 5 5 4 3 3 3 4 3 3 2 1 1 1 1 1 1 1 0 0
4 3 3 4 6 7 7 5 4 3 3 3 4 4 5 6 7 8 8 7 6 6 5 3 3 3 3 3 2 2 2 3 3 2 2 2 2 2 2 2 1 1 0 0
3 3 3 3 5 6 6 5 4 3 3 3 3 5 6 6 6 6 6 6 5 5 4 3 2 2 2 2 2 2 2 2 2 2 1 1 2 2 2 2 2 1 1 0
1 1 2 3 4 5 5 4 4 3 3 3 4 5 6 5 4 4 4 4 4 4 4 3 2 1 1 1 1 1 1 1 1 1 1 1 1 1 1 2 2 1 1 0
1 1 1 2 3 4 4 4 3 3 2 2 3 5 5 4 3 3 3 3 3 3 3 2 1 1 1 1 1 1 1 1 1 1 1 0 1 1 1 1 1 1 0 0
1 1 1 2 3 4 4 3 3 2 2 2 3 4 4 4 3 3 3 3 2 2 2 2 1 1 1 1 1 1 1 1 1 1 1 0 0 1 1 1 1 0 0 0
1 1 1 2 3 3 3 3 3 2 2 2 2 3 4 4 3 2 2 2 2 1 1 1 1 1 1 1 2 1 1 1 1 1 1 1 0 0 0 0 0 0 0 0
1 1 1 2 3 3 3 2 2 2 2 2 2 3 4 4 3 2 1 1 1 1 1 1 1 1 2 2 2 2 2 2 2 1 1 1 0 0 0 0 0 0 0 0
Wind_Speed
3 3 2 1 1 1 3 5 6 6 6 7 8 8 8 7 7 7 5 5 6 6 5 4 4 4 4 3 3 4 4 3 2 1 1 1 1 1 1 1 1 1 1 1
3 2 2 1 2 1 2 3 4 5 3 4 5 4 5 6 7 6 6 7 7 6 6 5 5 5 4 3 3 3 3 2 1 1 1 1 1 1 1 1 1 1 1 1
1 3 3 2 2 2 3 2 5 5 5 4 5 6 7 7 7 7 7 7 7 7 6 5 5 6 5 4 4 4 3 2 2 1 1 1 1 1 1 1 1 2 1 1
1 3 1 7 3 5 6 2 2 4 4 6 8 7 6 6 7 7 7 7 7 6 5 4 4 4 4 3 3 3 3 2 1 2 2 1 1 1 1 1 1 1 1 1
3 2 3 5 2 2 5 2 1 4 4 4 5 4 1 3 6 7 7 6 6 6 6 5 4 4 4 3 3 2 2 2 2 2 2 1 1 1 1 1 1 1 1 1
4 3 4 6 5 1 8 2 2 3 4 4 4 4 3 3 5 6 5 5 5 5 5 5 4 5 5 3 3 2 2 2 2 2 2 2 2 1 1 2 2 1 1 0
4 3 5 6 4 3 5 5 3 3 4 4 4 5 4 4 5 5 5 5 6 6 5 4 4 5 5 3 3 3 2 1 1 1 2 2 2 1 1 1 1 1 1 0
4 3 6 4 3 4 5 3 3 3 3 4 4 4 5 5 5 6 6 6 6 6 4 3 4 5 4 3 2 2 2 1 1 1 2 2 2 1 1 1 1 1 0 1
6 7 5 1 3 4 5 4 3 4 4 6 6 5 4 4 5 6 6 6 5 6 5 3 3 5 4 3 2 2 2 1 1 1 1 1 2 1 1 1 1 1 1 1
2 1 1 1 2 2 3 4 4 4 5 6 6 6 6 6 5 5 4 4 4 5 4 3 3 3 3 3 2 2 2 1 1 0 1 1 0 1 1 1 2 2 2 2
2 0 2 3 2 2 3 4 4 4 4 5 7 6 6 6 5 5 4 4 4 5 5 4 3 2 2 3 3 2 2 1 1 1 1 1 1 1 2 3 4 4 3 3
4 5 4 3 2 3 4 3 4 4 3 3 6 6 5 5 4 4 4 4 3 3 4 4 4 3 2 2 4 3 2 1 1 1 1 1 1 1 2 2 1 3 4 4
4 3 3 3 1 2 3 2 2 3 4 4 4 5 6 4 3 3 3 3 4 4 4 4 4 3 3 3 3 3 3 2 1 1 1 1 1 2 1 2 2 2 4 4
3 4 3 2 1 1 2 2 2 3 3 4 4 4 5 4 4 4 4 4 4 4 4 4 4 3 3 3 3 3 2 3 2 2 2 2 2 2 3 2 2 2 3 4
2 3 3 2 2 2 2 2 3 2 2 3 3 5 5 5 5 5 4 3 4 4 3 3 3 3 2 3 3 3 2 2 2 2 1 1 2 2 2 2 2 2 1 2
2 3 3 3 2 1 2 2 1 1 2 3 3 3 4 5 4 3 3 3 5 4 4 4 3 3 2 2 2 2 2 3 2 2 1 1 1 1 1 1 2 2 2 2
3 2 2 1 1 1 1 0 1 2 2 3 3 3 3 4 4 3 3 3 4 4 4 4 3 2 2 3 3 2 1 1 1 1 1 2 2 2 2 2 2 2 2 3
5 5 5 4 3 2 0 1 0 0 1 2 3 3 4 4 5 5 4 3 3 2 1 3 3 3 2 2 2 2 2 1 1 2 1 1 1 2 1 1 2 2 2 1
3 4 3 3 3 2 1 0 1 1 1 2 3 3 3 3 4 4 4 4 4 3 3 3 3 3 2 2 2 1 2 1 1 1 1 1 1 1 1 1 1 2 2 1
2 2 2 1 2 2 1 1 1 0 1 2 2 2 2 2 3 4 4 3 4 4 4 4 4 3 2 2 2 1 2 1 1 1 1 1 2 2 1 2 2 2 2 2
2 1 1 1 1 1 2 2 2 2 1 1 2 3 4 3 3 4 4 3 4 3 3 4 3 2 2 2 2 2 2 1 1 1 2 2 2 2 2 2 2 2 2 2
1 1 1 0 1 2 1 2 2 2 1 0 1 3 3 3 2 2 3 4 4 4 3 2 2 3 3 3 2 2 2 2 1 1 2 2 2 1 2 2 2 2 2 2
1 1 1 1 1 1 0 1 2 2 2 2 2 3 3 3 3 3 2 3 2 4 3 2 3 4 4 3 2 2 2 2 2 2 2 2 2 2 2 2 2 2 2 2
1 1 1 1 0 1 1 1 1 1 2 2 3 3 3 2 1 2 2 3 4 4 2 3 4 4 3 2 2 1 1 2 2 2 2 2 2 2 2 2 2 2 2 2
1 2 1 1 1 1 2 1 0 1 1 1 1 1 1 2 2 2 2 2 3 3 1 2 3 3 2 1 1 1 2 2 2 2 2 2 2 2 2 2 2 2 2 2
2 2 2 3 3 2 2 2 1 1 1 1 0 0 0 0 1 1 1 2 3 3 2 2 2 2 2 2 1 1 2 2 2 2 2 2 2 2 2 2 2 2 1 1
1 1 0 0 1 0 1 2 2 2 1 2 1 1 1 1 1 1 2 2 1 1 1 1 2 2 2 2 2 2 2 2 2 2 2 2 2 2 2 2 2 2 2 1
Wind_Direction
186 202 123 103 325 50 116 156 161 189 179 205 193 180 174 163 149 142 150 156 159 159 165 159 152 148 148 152 160 149 139 144 172 204 194 182 182 189 176 139 100 102 85 75
12 2 58 28 325 74 90 120 140 145 195 208 176 155 155 162 154 152 162 168 167 158 156 159 159 154 148 147 150 138 138 160 174 171 175 189 204 187 152 111 99 87 92 98
298 319 47 326 263 123 104 116 146 171 206 163 147 160 173 169 160 163 168 168 168 165 168 172 167 159 159 163 148 138 148 165 169 165 169 195 180 126 142 142 113 97 74 54
123 38 231 249 253 131 108 64 102 139 158 160 173 179 177 166 160 164 164 162 167 168 167 166 159 154 151 139 131 139 146 158 174 167 185 191 145 141 160 151 141 127 88 63
114 146 277 291 298 143 121 40 24 132 147 156 146 101 64 182 165 168 165 161 160 160 156 148 150 148 131 124 125 131 151 173 188 177 174 163 158 174 169 142 139 141 132 123
124 145 222 252 279 166 101 54 316 119 139 150 124 121 224 191 151 148 143 138 134 130 122 131 147 138 126 129 131 156 186 194 197 182 167 169 172 160 154 146 154 132 95 112
146 183 250 263 289 65 107 220 243 133 144 142 153 186 190 140 128 134 135 135 131 126 129 144 144 132 133 143 177 198 179 158 159 171 172 168 150 139 135 128 116 97 92 345
147 167 245 281 60 124 187 192 146 127 134 127 122 111 110 120 129 129 127 128 132 130 131 136 135 134 141 175 199 165 139 136 169 204 198 153 141 149 150 136 123 138 164 301
176 200 221 211 160 172 151 141 140 134 134 125 115 117 122 133 134 135 137 135 135 136 136 143 144 145 158 198 174 140 128 164 234 240 226 166 153 167 170 170 169 196 200 237
91 258 201 84 102 113 127 137 145 137 131 128 132 137 138 138 138 133 133 135 137 135 141 162 172 169 178 184 158 140 156 207 220 210 260 278 203 184 184 198 199 202 204 220
84 240 54 36 78 100 88 89 104 109 122 135 134 137 142 143 144 144 141 146 150 151 158 170 166 170 182 171 149 150 172 195 224 218 213 244 254 234 212 221 209 197 201 201
206 218 174 209 204 117 104 102 120 111 100 126 137 141 141 148 152 149 152 152 152 159 166 170 168 173 181 169 156 154 163 193 210 219 219 212 229 309 322 246 239 210 207 202
187 192 164 168 119 86 94 98 113 128 137 139 140 142 144 147 152 145 150 159 171 180 176 168 169 184 193 176 160 167 185 203 209 209 211 210 212 211 264 310 311 249 234 228
117 100 83 84 95 76 89 101 97 96 106 131 135 134 136 135 142 152 170 185 177 165 164 168 170 193 203 176 165 177 192 215 208 204 208 216 218 221 217 217 252 280 268 240
85 113 137 118 82 70 82 78 72 63 89 105 120 135 144 150 164 176 176 168 150 147 156 158 168 200 201 176 174 184 195 211 210 207 211 225 240 245 235 219 215 235 265 276
137 101 100 91 69 46 60 79 105 208 151 135 134 150 165 169 166 159 156 149 151 165 174 165 175 198 179 162 162 180 212 218 209 203 213 235 250 247 232 212 209 216 227 236
131 138 141 139 118 67 348 230 189 195 164 155 169 170 155 146 143 150 165 164 162 168 170 171 185 182 159 161 169 186 204 221 213 195 208 221 229 221 219 216 216 226 239 233
168 172 169 171 170 151 275 312 122 127 177 182 157 144 151 162 173 181 182 161 136 130 166 184 180 171 176 180 174 174 178 190 200 219 230 229 231 229 222 222 225 233 257 242
151 149 153 157 162 151 150 236 228 249 175 142 145 155 173 180 175 172 166 154 161 188 220 204 180 171 194 214 173 164 164 177 214 236 231 244 243 227 212 207 206 217 219 214
107 127 137 141 126 132 154 205 189 151 162 139 138 140 152 169 165 160 159 182 204 207 203 184 175 181 201 214 186 170 172 183 194 211 232 237 231 235 229 216 206 211 216 208
82 88 118 192 188 185 192 182 168 180 211 184 171 172 174 178 166 159 169 210 241 206 183 182 182 189 196 193 174 169 175 177 187 204 225 238 235 238 237 228 219 210 204 204
39 56 42 353 230 233 218 182 172 172 185 201 165 157 157 168 175 181 204 211 210 181 173 183 191 191 184 169 167 181 191 192 199 211 217 224 223 232 237 227 221 217 206 204
358 0 344 350 265 241 193 153 165 167 177 185 173 175 184 189 180 178 223 241 193 176 174 190 194 184 180 171 178 192 196 192 207 217 217 219 224 228 236 229 218 211 205 207
332 320 313 319 0 122 158 229 216 199 196 195 191 187 177 166 213 227 210 205 194 186 188 195 188 179 173 174 181 200 210 206 214 221 219 220 219 222 234 238 231 225 220 215
270 276 282 293 263 233 223 216 196 220 220 222 210 193 172 167 180 206 200 192 180 173 179 189 186 177 174 181 188 207 220 223 221 223 230 233 231 230 234 235 225 224 221 216
240 249 255 243 224 210 197 176 181 202 191 168 164 161 136 137 145 152 160 166 162 165 168 179 187 186 196 199 192 206 221 231 236 236 241 240 239 236 237 238 228 215 207 201
272 270 255 335 316 211 166 162 161 173 175 155 157 193 161 135 125 133 137 146 151 149 144 152 166 181 188 195 203 217 228 234 230 233 239 239 233 226 225 225 214 202 194 190